Location: Newark
(49.5647°N, 8.2922°E)
Time: 13:22:30
(UTC+00:00)

Transit 2A - Pass Details

Date: 27 February 2020
Orbit: 597 x 961 km, 66.7° (Epoch: 30 March)

Event Time Altitude Azimuth Distance (km) Brightness Sun altitude
Rises 19:46:43 0° 323° (NW) 3,082 10.0 -26.6°
Reaches altitude 10° 19:48:57 10° 322° (NW) 2,211 9.1 -27.0°
Enters shadow 19:53:51 81° 267° (W) 789 6.0 -27.7°
Maximum altitude 19:54:01 82° 236° (SW) 788 - -27.7°
Drops below altitude 10° 19:59:38 10° 149° (SSE) 2,445 - -28.6°
Sets 20:02:12 0° 149° (SSE) 3,432 - -29.0°
